[[{"header":{"parameterUnit":"m.s-1","parameterCategory":1,"la1":30.2991,"la2":30.254,"lo1":-89.0895,"lo2":-89.0444,"dy":0.0017,"dx":0.0017,"nx":28,"ny":28,"refTime":"2024-08-02T03:00:00:Z","depth":0,"parameterNumber":2,"parameterNumberName":"U-component_of_WINDS"},"data":[0,0,0,0,0,0,0,0,0,0,0,0,0,0,0,0,0,0,0,0,0,0,0,0,0,0,0,0,0,0,0,0,0,0,0,0,0,0,0,0,0,0,0,0,0,0,0,0,0,0,0,0,0,0,0,0,0,0,3.0624,3.0625,0,3.0754,3.0756,3.0757,3.0713,3.071,3.0707,3.0704,3.0842,3.0849,3.0855,0,0,0,0,0,0,0,0,0,0,0,0,0,3.0341,3.0346,3.0623,3.0625,3.0627,3.0754,3.0756,3.0757,3.0713,3.071,3.0706,3.0703,3.084,3.0848,3.0856,0,0,0,0,0,0,0,0,0,0,0,0,0,3.0467,3.0348,3.0623,3.062,3.0621,3.0753,3.0756,3.0758,3.0714,3.071,3.0705,3.0701,3.0838,3.0847,3.0857,3.1002,0,0,3.0886,3.089,0,0,0,0,0,0,0,0,3.046,3.0477,3.0619,3.062,3.0622,3.0713,3.0707,3.084,3.0715,3.0679,3.0704,3.0699,3.0803,3.0815,3.0849,3.1008,3.1014,3.0887,3.0892,3.0896,3.0899,0,0,0,0,0,0,0,3.0451,3.0471,3.0675,3.0621,3.0623,3.0613,3.0627,3.0732,3.0764,3.0682,3.0679,3.0694,3.0803,3.084,3.0852,3.1016,3.0886,3.0895,3.0901,3.0904,3.1302,3.1307,0,0,0,0,0,0,3.0441,3.0464,3.0671,3.0679,3.0528,3.0622,3.0637,3.0688,3.0762,3.0769,3.0698,3.0692,3.0826,3.0841,3.0857,3.1033,3.0896,3.0905,3.0911,3.1297,3.1303,3.1308,0,0,0,0,0,0,3.0435,3.046,3.0666,3.0571,3.0597,3.0631,3.0689,3.0693,3.073,3.0775,3.0781,3.073,3.0823,3.0843,3.0966,3.1037,3.091,3.0918,3.1292,3.1299,3.1306,3.1385,0,0,0,0,0,0,3.0427,3.0458,3.0512,3.0573,3.0602,3.0772,3.0694,3.0698,3.0746,3.0739,3.0806,3.0813,3.0821,3.0952,3.0975,3.1048,3.0926,3.1286,3.1295,3.1304,3.1376,3.1394,3.1409,0,0,0,0,0,3.0417,3.053,3.0515,3.054,3.067,3.0776,3.0793,3.0798,3.0751,3.0807,3.0836,3.0811,3.1025,3.0965,3.0991,3.1067,3.1281,3.1292,3.1303,3.1368,3.139,3.1408,0,0,0,0,0,0,3.0478,3.0538,3.0522,3.0657,3.0712,3.0768,3.0838,3.0821,3.0891,3.0882,3.0888,3.0903,3.103,3.106,3.0992,3.1212,3.1146,3.1163,3.1187,3.1208,3.1224,3.1215,3.0934,0,0,0,0,0,3.0507,3.0586,3.0635,3.075,3.0777,3.0803,3.085,3.0849,3.0906,3.093,3.0968,3.1025,3.1106,3.1159,3.1235,3.138,3.1395,3.1445,3.1462,3.1475,3.149,3.157,3.1593,3.1344,3.1344,3.1344,0,0,3.0569,3.0611,3.0661,3.0763,3.0805,3.0889,3.0823,3.0914,3.0976,3.0944,3.1062,3.1092,3.1157,3.1291,3.1353,3.1321,3.1562,3.1489,3.1499,3.1507,3.1584,3.1607,3.1628,3.1352,3.135,3.1349,0,0,3.0723,3.0762,3.0863,3.0906,3.097,3.0986,3.1011,3.107,3.1088,3.1206,3.1184,3.1259,3.1397,3.1444,3.1487,3.166,3.1639,3.1685,3.1771,3.1849,3.1869,3.1886,3.1949,3.1972,3.1699,3.1699,3.1699,0,3.0791,3.0915,3.0917,3.101,3.1056,3.1029,3.1132,3.1174,3.1261,3.1294,3.1257,3.143,3.1472,3.1618,3.166,3.1695,3.1724,3.1677,3.1866,3.1883,3.19,3.196,3.1983,3.1704,3.1703,3.1703,3.1702,0,3.0996,3.1082,3.1156,3.1239,3.1293,3.1391,3.1409,3.1465,3.146,3.1481,3.1603,3.1652,3.1738,3.1772,3.1769,3.1919,3.1897,3.1863,3.1797,3.1928,3.1985,3.2008,3.1711,3.171,3.1708,3.1707,0,0,3.1193,3.1275,3.1303,3.134,3.1409,3.1477,3.1574,3.1656,3.1704,3.1765,3.1848,3.1965,3.1934,3.1982,3.1984,3.2053,3.2188,3.201,3.2012,3.2043,3.2357,3.2383,3.241,3.2175,3.2179,3.2183,3.2352,0,3.1354,3.1522,3.1527,3.1682,3.1762,3.1738,3.1823,3.1875,3.1898,3.1971,3.1996,3.208,3.2032,3.2061,3.2127,3.2157,3.2252,3.2145,3.2254,3.2257,3.2238,3.2439,3.2467,3.2624,3.2374,3.2378,3.2381,0,3.1563,3.1629,3.1792,3.185,3.1884,3.196,3.2037,3.2106,3.2166,3.2177,3.2231,3.2223,3.2324,3.2254,3.2395,3.2322,3.2367,3.2389,3.2395,3.2406,3.2327,3.2457,3.2674,3.2699,3.2415,3.2413,3.241,0,3.1692,3.1822,3.1936,3.1968,3.2039,3.2093,3.2125,3.218,3.223,3.2298,3.233,3.241,3.2454,3.2516,3.2531,3.2478,3.2671,3.2603,3.2685,3.2685,3.2728,3.2725,3.2957,3.2755,3.2755,3.2754,3.2754,0,3.1871,3.1972,3.1994,3.2065,3.2177,3.2183,3.2295,3.2323,3.2373,3.245,3.2434,3.2507,3.2521,3.2597,3.2609,3.2725,3.2744,3.2758,3.276,3.276,3.2758,3.279,3.2779,3.2761,3.2759,3.2758,3.2757,0,3.2034,3.2053,3.2176,3.2232,3.2248,3.2329,3.2378,3.2446,3.2467,3.2564,3.2588,3.2621,3.271,3.273,3.2837,3.2845,3.2982,3.2973,3.2961,3.2961,3.3043,3.3035,3.3304,3.334,3.3114,3.3116,3.3117,0,3.2147,3.2224,3.2288,3.2337,3.2372,3.2452,3.2502,3.2511,3.2565,3.2639,3.2699,3.2786,3.2856,3.3,3.3035,3.3117,3.311,3.3199,3.3122,3.312,3.3113,3.3108,3.3117,3.3213,3.3216,3.3218,3.3219,0,3.2347,3.2352,3.2425,3.2501,3.2562,3.2623,3.2681,3.2723,3.274,3.2802,3.2892,3.2946,3.3054,3.3141,3.3223,3.3258,3.3243,3.3243,3.3267,3.3268,3.3258,3.3265,3.3002,3.3237,3.3235,3.3234,3.3233,3.3232,3.2489,3.2557,3.2612,3.2694,3.2738,3.2793,3.286,3.2889,3.2964,3.3051,3.3052,3.3151,3.321,3.3319,3.3359,3.3437,3.341,3.3444,3.3453,3.3461,3.3469,3.3245,3.3452,3.3452,3.3451,3.3451,3.345,0,3.2689,3.2723,3.2798,3.288,3.2944,3.2922,3.2986,3.3042,3.3128,3.3184,3.3253,3.3357,3.3442,3.3483,3.3568,3.3623,3.3618,3.3645,3.3641,3.365,3.3488,3.346,3.3647,3.3647,3.3647,3.3647,3.3647,3.3647,3.2801,3.2913,3.2926,3.3062,3.3096,3.3191,3.3229,3.3281,3.3325,3.3442,3.3511,3.3537,3.3588,3.3675,3.3753,3.3763,3.3795,3.3826,3.3833,3.3681,3.3661,3.3642,3.3615,3.3833,3.3833,3.3988,3.3989,3.3991]},{"header":{"parameterUnit":"m.s-1","parameterCategory":1,"la1":30.2991,"la2":30.254,"lo1":-89.0895,"lo2":-89.0444,"dy":0.0017,"dx":0.0017,"nx":28,"ny":28,"refTime":"2024-08-02T03:00:00:Z","depth":0,"parameterNumber":3,"parameterNumberName":"V-component_of_WINDS"},"data":[0,0,0,0,0,0,0,0,0,0,0,0,0,0,0,0,0,0,0,0,0,0,0,0,0,0,0,0,0,0,0,0,0,0,0,0,0,0,0,0,0,0,0,0,0,0,0,0,0,0,0,0,0,0,0,0,0,0,-0.9617,-0.9617,0,-0.9622,-0.9622,-0.9622,-0.9628,-0.9628,-0.9628,-0.9628,-0.9633,-0.9633,-0.9633,0,0,0,0,0,0,0,0,0,0,0,0,0,-0.9611,-0.9611,-0.9617,-0.9617,-0.9617,-0.9622,-0.9622,-0.9622,-0.9628,-0.9628,-0.9628,-0.9628,-0.9633,-0.9633,-0.9633,0,0,0,0,0,0,0,0,0,0,0,0,0,-0.9615,-0.9611,-0.9617,-0.962,-0.9621,-0.9622,-0.9622,-0.9622,-0.9628,-0.9628,-0.9628,-0.9628,-0.9633,-0.9633,-0.9633,-0.9631,0,0,-0.9633,-0.9633,0,0,0,0,0,0,0,0,-0.9614,-0.9615,-0.962,-0.962,-0.962,-0.9624,-0.9622,-0.9625,-0.9628,-0.9625,-0.9628,-0.9628,-0.963,-0.963,-0.9631,-0.9631,-0.9631,-0.9633,-0.9633,-0.9633,-0.9633,0,0,0,0,0,0,0,-0.9614,-0.9615,-0.9619,-0.962,-0.962,-0.9621,-0.9622,-0.9622,-0.9627,-0.9625,-0.9626,-0.9626,-0.963,-0.9631,-0.9631,-0.9632,-0.9633,-0.9633,-0.9633,-0.9633,-0.9631,-0.963,0,0,0,0,0,0,-0.9613,-0.9614,-0.9618,-0.9619,-0.9618,-0.9621,-0.9622,-0.9623,-0.9627,-0.9627,-0.9626,-0.9627,-0.9631,-0.9631,-0.9631,-0.9629,-0.9633,-0.9633,-0.9633,-0.9631,-0.963,-0.963,0,0,0,0,0,0,-0.9613,-0.9614,-0.9618,-0.9617,-0.9617,-0.9621,-0.9622,-0.9623,-0.9624,-0.9627,-0.9628,-0.9626,-0.9631,-0.9631,-0.9631,-0.9629,-0.9633,-0.9634,-0.9631,-0.9631,-0.963,-0.9625,0,0,0,0,0,0,-0.9613,-0.9614,-0.9613,-0.9617,-0.9617,-0.9618,-0.9622,-0.9623,-0.9624,-0.9624,-0.9628,-0.9628,-0.9631,-0.9631,-0.9631,-0.963,-0.9634,-0.9631,-0.9631,-0.963,-0.9625,-0.9624,-0.9624,0,0,0,0,0,-0.9613,-0.9611,-0.9613,-0.9613,-0.9617,-0.9618,-0.9618,-0.9622,-0.9624,-0.9623,-0.9625,-0.9628,-0.963,-0.9631,-0.9631,-0.963,-0.9631,-0.9631,-0.963,-0.9625,-0.9624,-0.9624,0,0,0,0,0,0,-0.9606,-0.9611,-0.9614,-0.9613,-0.9615,-0.9619,-0.9618,-0.9621,-0.9622,-0.9622,-0.9626,-0.9627,-0.9626,-0.9628,-0.9629,-0.9628,-0.9631,-0.963,-0.9627,-0.9626,-0.9625,-0.9625,-0.9634,0,0,0,0,0,-0.9605,-0.9606,-0.961,-0.9609,-0.961,-0.9614,-0.9614,-0.9617,-0.9619,-0.962,-0.9622,-0.9624,-0.9625,-0.9626,-0.9627,-0.9626,-0.9626,-0.9625,-0.9624,-0.9623,-0.9623,-0.9622,-0.9622,-0.9629,-0.9629,-0.9629,0,0,-0.9602,-0.9605,-0.9605,-0.9608,-0.961,-0.961,-0.9614,-0.9615,-0.9615,-0.962,-0.962,-0.9622,-0.9624,-0.9624,-0.9623,-0.9625,-0.9621,-0.9623,-0.9623,-0.9622,-0.9622,-0.9621,-0.962,-0.9629,-0.9629,-0.9629,0,0,-0.9597,-0.9599,-0.9598,-0.96,-0.9603,-0.9606,-0.9606,-0.9609,-0.9611,-0.9611,-0.9615,-0.9615,-0.9617,-0.9618,-0.9619,-0.9615,-0.9618,-0.9615,-0.9612,-0.9611,-0.961,-0.961,-0.9608,-0.9608,-0.9615,-0.9615,-0.9615,0,-0.9592,-0.9593,-0.9597,-0.9598,-0.9599,-0.9604,-0.9603,-0.9605,-0.9608,-0.9608,-0.961,-0.9612,-0.9614,-0.9614,-0.9613,-0.9614,-0.9614,-0.9615,-0.961,-0.961,-0.9609,-0.9608,-0.9607,-0.9615,-0.9615,-0.9615,-0.9615,0,-0.9588,-0.9588,-0.9588,-0.9591,-0.9592,-0.9592,-0.9596,-0.9596,-0.9599,-0.9601,-0.9602,-0.9604,-0.9606,-0.9606,-0.9609,-0.9606,-0.9607,-0.961,-0.9612,-0.9608,-0.9607,-0.9606,-0.9614,-0.9614,-0.9615,-0.9615,0,0,-0.9578,-0.9584,-0.9583,-0.9585,-0.9589,-0.9589,-0.9589,-0.9591,-0.9592,-0.9594,-0.9594,-0.9595,-0.9598,-0.9599,-0.9602,-0.9601,-0.9597,-0.9604,-0.9604,-0.9602,-0.9595,-0.9593,-0.9592,-0.9599,-0.9599,-0.9599,-0.9594,0,-0.9573,-0.9573,-0.9577,-0.9576,-0.9577,-0.9582,-0.9582,-0.9585,-0.9587,-0.9588,-0.9591,-0.9591,-0.9595,-0.9595,-0.9595,-0.9598,-0.9596,-0.9598,-0.9599,-0.9599,-0.9598,-0.9591,-0.9589,-0.9584,-0.9594,-0.9594,-0.9594,0,-0.9566,-0.9569,-0.9568,-0.9572,-0.9573,-0.9573,-0.9575,-0.9576,-0.9579,-0.9581,-0.9582,-0.9585,-0.9586,-0.9589,-0.9589,-0.9591,-0.9591,-0.9593,-0.9593,-0.9592,-0.9596,-0.959,-0.9583,-0.9582,-0.9593,-0.9593,-0.9593,0,-0.9559,-0.9562,-0.9562,-0.9563,-0.9568,-0.9568,-0.957,-0.9573,-0.9574,-0.9576,-0.9576,-0.9578,-0.9579,-0.9581,-0.9584,-0.9586,-0.9584,-0.9588,-0.9586,-0.9585,-0.9584,-0.9584,-0.9576,-0.9586,-0.9586,-0.9586,-0.9586,0,-0.9552,-0.9552,-0.9558,-0.9558,-0.9558,-0.9563,-0.9562,-0.9564,-0.9567,-0.9568,-0.9572,-0.9572,-0.9577,-0.9578,-0.9581,-0.9581,-0.9581,-0.9583,-0.9583,-0.9582,-0.9582,-0.9582,-0.9582,-0.9585,-0.9585,-0.9586,-0.9586,0,-0.9543,-0.9548,-0.9548,-0.9553,-0.9554,-0.9554,-0.9558,-0.9558,-0.9561,-0.9561,-0.9562,-0.9567,-0.9568,-0.9572,-0.9574,-0.9576,-0.9575,-0.9576,-0.9574,-0.9574,-0.9572,-0.9572,-0.9563,-0.9562,-0.9572,-0.9572,-0.9572,0,-0.9538,-0.9538,-0.9543,-0.9544,-0.9546,-0.9547,-0.9548,-0.9553,-0.9554,-0.9558,-0.9558,-0.9559,-0.9561,-0.9563,-0.9566,-0.9568,-0.9569,-0.9566,-0.957,-0.9568,-0.9569,-0.9569,-0.9569,-0.9565,-0.9565,-0.9565,-0.9565,0,-0.9529,-0.9532,-0.9534,-0.9536,-0.9537,-0.954,-0.9542,-0.9542,-0.9548,-0.9549,-0.955,-0.9552,-0.9554,-0.9556,-0.9558,-0.956,-0.9563,-0.9564,-0.9564,-0.9562,-0.956,-0.9561,-0.9571,-0.9564,-0.9564,-0.9564,-0.9564,-0.9564,-0.9522,-0.9522,-0.9526,-0.9528,-0.953,-0.9532,-0.9533,-0.9536,-0.9538,-0.954,-0.9543,-0.9544,-0.9548,-0.9551,-0.9553,-0.9554,-0.9556,-0.9555,-0.9555,-0.9554,-0.9554,-0.9561,-0.9554,-0.9555,-0.9555,-0.9555,-0.9555,0,-0.9513,-0.9516,-0.9517,-0.9521,-0.9522,-0.9526,-0.9529,-0.953,-0.9531,-0.9534,-0.9535,-0.9537,-0.9539,-0.9543,-0.9545,-0.9545,-0.9547,-0.9545,-0.9545,-0.9545,-0.9552,-0.9552,-0.9544,-0.9544,-0.9544,-0.9544,-0.9544,-0.9544,-0.9508,-0.9508,-0.9511,-0.9513,-0.9516,-0.9517,-0.9519,-0.9521,-0.9523,-0.9525,-0.9527,-0.9529,-0.9533,-0.9535,-0.9537,-0.9538,-0.9538,-0.9536,-0.9538,-0.9544,-0.9545,-0.9546,-0.9546,-0.9537,-0.9537,-0.9531,-0.9531,-0.9531]}]]